PHTEX EHAL-EDWG

Flight info

Callsign PHTEX
Flight time N/A
Altitude 1000
Route WADDENEILANDEN
Aircraft P28B/L-SDE2E3FGHIRWXY/LB1

Departure

Time N/A
Airport EHAL

Arrival

Time 2026-04-11 22:45
Airport Wangerooge Airport (EDWG)
Time Latitude Longitude Altitude Speed Heading
2026-04-11 21:24 53.44935 5.68406 26 ft 0 kts 263°
2026-04-11 21:27 53.44935 5.68398 13 ft 2 kts 258°
2026-04-11 21:27 53.44933 5.68389 13 ft 0 kts 254°
2026-04-11 21:28 53.44936 5.68360 13 ft 4 kts 303°
2026-04-11 21:28 53.44983 5.68411 14 ft 13 kts 23°
2026-04-11 21:28 53.44990 5.68416 14 ft 14 kts 15°
2026-04-11 21:28 53.45175 5.68456 14 ft 16 kts 355°
2026-04-11 21:29 53.45296 5.68455 14 ft 26 kts 352°
2026-04-11 21:29 53.45364 5.68419 14 ft 12 kts 273°
2026-04-11 21:29 53.45368 5.68175 14 ft 51 kts 266°
2026-04-11 21:29 53.45345 5.67469 201 ft 66 kts 265°
2026-04-11 21:30 53.45383 5.66399 606 ft 66 kts 269°
2026-04-11 21:30 53.45448 5.65861 830 ft 66 kts 282°
2026-04-11 21:30 53.46059 5.65438 1061 ft 113 kts 16°
2026-04-11 21:30 53.46655 5.66466 1071 ft 130 kts 63°
2026-04-11 21:31 53.46795 5.67521 1067 ft 136 kts 91°
2026-04-11 21:31 53.46892 5.69773 1071 ft 158 kts 89°
2026-04-11 21:31 53.46954 5.71655 1072 ft 165 kts 89°
2026-04-11 21:32 53.47068 5.75098 1371 ft 152 kts 90°
2026-04-11 21:32 53.47134 5.76736 1386 ft 163 kts 89°
2026-04-11 21:32 53.47199 5.78514 1390 ft 167 kts 89°
2026-04-11 21:32 53.47281 5.80849 1396 ft 170 kts 90°
2026-04-11 21:33 53.47343 5.82396 1395 ft 169 kts 89°
2026-04-11 21:33 53.47426 5.84378 1395 ft 171 kts 89°
2026-04-11 21:33 53.47507 5.86457 1397 ft 171 kts 89°
2026-04-11 21:33 53.47581 5.88448 1399 ft 171 kts 89°
2026-04-11 21:34 53.47659 5.90444 1398 ft 171 kts 89°
2026-04-11 21:34 53.47749 5.92693 1399 ft 170 kts 89°
2026-04-11 21:34 53.47820 5.94419 1398 ft 171 kts 89°
2026-04-11 21:34 53.47898 5.96347 1399 ft 171 kts 89°
2026-04-11 21:35 53.47954 5.98300 1391 ft 168 kts 99°
2026-04-11 21:35 53.47701 6.00298 1382 ft 168 kts 93°
2026-04-11 21:35 53.47791 6.02466 1388 ft 170 kts 89°
2026-04-11 21:35 53.47868 6.04270 1391 ft 170 kts 89°
2026-04-11 21:36 53.47956 6.06293 1368 ft 173 kts 89°
2026-04-11 21:36 53.48050 6.08292 1439 ft 169 kts 89°
2026-04-11 21:36 53.48116 6.09696 1471 ft 169 kts 88°
2026-04-11 21:36 53.48161 6.10699 1465 ft 153 kts 89°
2026-04-11 21:37 53.48244 6.12288 1461 ft 120 kts 89°
2026-04-11 21:37 53.48325 6.13543 1455 ft 98 kts 88°
2026-04-11 21:37 53.48399 6.14632 1383 ft 94 kts 88°
2026-04-11 21:37 53.48470 6.15818 1481 ft 111 kts 88°
2026-04-11 21:38 53.48553 6.17188 1488 ft 121 kts 88°
2026-04-11 21:38 53.48637 6.18605 1489 ft 123 kts 88°
2026-04-11 21:38 53.48720 6.20038 1487 ft 124 kts 88°
2026-04-11 21:38 53.48782 6.21530 1502 ft 138 kts 88°
2026-04-11 21:39 53.48824 6.23231 1498 ft 152 kts 89°
2026-04-11 21:39 53.48879 6.25028 1496 ft 157 kts 88°
2026-04-11 21:39 53.48935 6.26873 1493 ft 159 kts 88°
2026-04-11 21:39 53.49152 6.28691 1496 ft 159 kts 75°
2026-04-11 21:40 53.49431 6.30492 1499 ft 159 kts 75°
2026-04-11 21:40 53.49710 6.32302 1496 ft 161 kts 75°
2026-04-11 21:40 53.49996 6.34117 1496 ft 161 kts 75°
2026-04-11 21:40 53.50286 6.35931 1496 ft 160 kts 74°
2026-04-11 21:41 53.50574 6.37741 1496 ft 161 kts 72°
2026-04-11 21:41 53.50937 6.39551 1497 ft 162 kts 70°
2026-04-11 21:41 53.51306 6.41299 1495 ft 159 kts 69°
2026-04-11 21:41 53.51667 6.43031 1494 ft 151 kts 69°
2026-04-11 21:42 53.52012 6.44680 1493 ft 148 kts 70°
2026-04-11 21:42 53.52360 6.46300 1488 ft 147 kts 70°
2026-04-11 21:42 53.52707 6.47926 1486 ft 144 kts 69°
2026-04-11 21:42 53.52939 6.49556 1485 ft 143 kts 80°
2026-04-11 21:43 53.53121 6.51193 1487 ft 142 kts 79°
2026-04-11 21:43 53.53305 6.52824 1485 ft 142 kts 79°
2026-04-11 21:43 53.53492 6.54461 1485 ft 143 kts 79°
2026-04-11 21:43 53.53684 6.56107 1485 ft 143 kts 79°
2026-04-11 21:44 53.53887 6.57747 1484 ft 143 kts 79°
2026-04-11 21:44 53.54091 6.59387 1485 ft 143 kts 79°
2026-04-11 21:44 53.54294 6.61028 1486 ft 143 kts 79°
2026-04-11 21:44 53.54493 6.62681 1486 ft 145 kts 79°
2026-04-11 21:45 53.54700 6.64367 1490 ft 145 kts 79°
2026-04-11 21:45 53.54912 6.66020 1489 ft 143 kts 77°
2026-04-11 21:45 53.55423 6.67440 1328 ft 145 kts 31°
2026-04-11 21:45 53.56318 6.68051 1292 ft 134 kts
2026-04-11 21:46 53.57238 6.68350 1146 ft 124 kts
2026-04-11 21:46 53.57991 6.68628 720 ft 105 kts
2026-04-11 21:46 53.58571 6.69100 559 ft 86 kts 28°
2026-04-11 21:46 53.59060 6.69740 262 ft 89 kts 37°
2026-04-11 21:47 53.59467 6.70406 65 ft 77 kts 36°
2026-04-11 21:47 53.60183 6.71718 296 ft 83 kts 38°
2026-04-11 21:47 53.60643 6.71769 567 ft 75 kts 308°
2026-04-11 21:48 53.60834 6.70870 751 ft 91 kts 274°
2026-04-11 21:48 53.60832 6.69681 855 ft 110 kts 260°
2026-04-11 21:48 53.60697 6.68316 595 ft 124 kts 264°
2026-04-11 21:48 53.60473 6.67479 668 ft 83 kts 182°
2026-04-11 21:49 53.60107 6.68342 462 ft 102 kts 107°
2026-04-11 21:49 53.59890 6.69510 263 ft 104 kts 110°
2026-04-11 21:49 53.59612 6.70584 22 ft 96 kts 119°
2026-04-11 21:49 53.59333 6.71495 73 ft 91 kts 120°
2026-04-11 21:50 53.58977 6.72387 358 ft 98 kts 133°
2026-04-11 21:50 53.58529 6.73361 573 ft 111 kts 131°
2026-04-11 21:50 53.58037 6.74461 768 ft 129 kts 129°
2026-04-11 21:50 53.57431 6.75888 544 ft 167 kts 129°
2026-04-11 21:51 53.56837 6.77416 980 ft 146 kts 120°
2026-04-11 21:51 53.56373 6.78956 1202 ft 149 kts 117°
2026-04-11 21:51 53.55977 6.80611 1333 ft 153 kts 122°
2026-04-11 21:51 53.55214 6.81781 1130 ft 145 kts 157°
2026-04-11 21:52 53.54253 6.82082 1027 ft 141 kts 176°
2026-04-11 21:52 53.53272 6.82166 876 ft 141 kts 178°
2026-04-11 21:52 53.52299 6.82273 785 ft 138 kts 176°
2026-04-11 21:52 53.51365 6.82352 796 ft 132 kts 175°
2026-04-11 21:53 53.50486 6.82927 491 ft 146 kts 144°
2026-04-11 21:53 53.49908 6.84257 275 ft 146 kts 104°
2026-04-11 21:53 53.49524 6.85816 151 ft 139 kts 122°
2026-04-11 21:53 53.49319 6.87198 400 ft 112 kts 90°
2026-04-11 21:54 53.49335 6.88560 600 ft 126 kts 88°
2026-04-11 21:54 53.49398 6.90059 790 ft 133 kts 85°
2026-04-11 21:54 53.49550 6.91629 933 ft 139 kts 71°
2026-04-11 21:54 53.49914 6.93121 1097 ft 139 kts 62°
2026-04-11 21:55 53.50443 6.94453 1308 ft 135 kts 45°
2026-04-11 21:55 53.51333 6.94984 1277 ft 145 kts 354°
2026-04-11 21:55 53.52255 6.94444 1504 ft 136 kts 332°
2026-04-11 21:55 53.53069 6.93630 1674 ft 137 kts 324°
2026-04-11 21:56 53.53575 6.92959 1794 ft 136 kts 319°
2026-04-11 21:56 53.54239 6.91818 1927 ft 139 kts 304°
2026-04-11 21:56 53.54553 6.90279 1979 ft 144 kts 271°
2026-04-11 21:56 53.54176 6.88752 2010 ft 148 kts 224°
2026-04-11 21:57 53.53344 6.87794 2080 ft 145 kts 231°
2026-04-11 21:57 53.53008 6.86196 2150 ft 143 kts 260°
2026-04-11 21:57 53.52837 6.84682 2496 ft 130 kts 258°
2026-04-11 21:57 53.52761 6.83136 2626 ft 132 kts 275°
2026-04-11 21:58 53.52897 6.81625 2832 ft 132 kts 280°
2026-04-11 21:58 53.53077 6.80086 2975 ft 134 kts 281°
2026-04-11 21:58 53.53270 6.78573 3102 ft 136 kts 290°
2026-04-11 21:58 53.53982 6.77420 2892 ft 153 kts 338°
2026-04-11 21:59 53.55028 6.77534 2881 ft 151 kts 16°
2026-04-11 21:59 53.56066 6.77901 2852 ft 153 kts 15°
2026-04-11 21:59 53.56994 6.78685 2995 ft 145 kts 36°
2026-04-11 21:59 53.57698 6.79965 2834 ft 158 kts 50°
2026-04-11 22:00 53.58400 6.81354 2980 ft 145 kts 46°
2026-04-11 22:00 53.59080 6.82497 3207 ft 141 kts 43°
2026-04-11 22:00 53.59755 6.83756 3240 ft 146 kts 44°
2026-04-11 22:00 53.60644 6.84551 3306 ft 146 kts 12°
2026-04-11 22:01 53.61640 6.84552 3460 ft 141 kts 350°
2026-04-11 22:01 53.62629 6.84411 3460 ft 148 kts
2026-04-11 22:01 53.63544 6.85322 3258 ft 160 kts 47°
2026-04-11 22:01 53.64293 6.86553 3467 ft 144 kts 38°
2026-04-11 22:02 53.65111 6.87870 2895 ft 173 kts 49°
2026-04-11 22:02 53.65776 6.89684 2223 ft 185 kts 64°
2026-04-11 22:02 53.66230 6.91690 2040 ft 168 kts 70°
2026-04-11 22:02 53.66643 6.93539 1844 ft 170 kts 68°
2026-04-11 22:03 53.67026 6.95333 1752 ft 161 kts 82°
2026-04-11 22:03 53.67153 6.97329 1181 ft 179 kts 85°
2026-04-11 22:03 53.67282 6.99490 457 ft 190 kts 82°
2026-04-11 22:03 53.67506 7.01597 265 ft 172 kts 76°
2026-04-11 22:04 53.67824 7.03507 137 ft 165 kts 76°
2026-04-11 22:04 53.68084 7.05364 62 ft 162 kts 76°
2026-04-11 22:04 53.68441 7.07087 122 ft 138 kts 60°
2026-04-11 22:04 53.68763 7.08079 291 ft 80 kts 101°
2026-04-11 22:05 53.68438 7.07776 299 ft 90 kts 256°
2026-04-11 22:05 53.68278 7.06693 88 ft 96 kts 257°
2026-04-11 22:05 53.68148 7.05782 10 ft 66 kts 257°
2026-04-11 22:05 53.68090 7.05473 15 ft 5 kts 16°
2026-04-11 22:06 53.68133 7.05580 9 ft 12 kts
2026-04-11 22:06 53.68161 7.05566 10 ft 12 kts 337°
2026-04-11 22:06 53.68166 7.05586 10 ft 0 kts 181°
2026-04-11 22:08 53.68183 7.05645 14 ft 0 kts 168°
2026-04-11 22:10 53.68177 7.05648 14 ft 8 kts 158°
2026-04-11 22:10 53.68196 7.05871 6 ft 33 kts 77°
2026-04-11 22:10 53.68226 7.06141 9 ft 9 kts 159°
2026-04-11 22:11 53.68196 7.06093 9 ft 24 kts 255°
2026-04-11 22:11 53.68105 7.05524 36 ft 70 kts 272°
2026-04-11 22:11 53.68183 7.05645 10 ft 0 kts 168°
2026-04-11 22:12 53.68179 7.05646 13 ft 0 kts 168°
2026-04-11 22:13 53.68168 7.05675 9 ft 16 kts 77°
2026-04-11 22:13 53.68221 7.06066 8 ft 0 kts 77°
2026-04-11 22:14 53.68218 7.06151 8 ft 5 kts 194°
2026-04-11 22:14 53.68195 7.06110 8 ft 6 kts 254°
2026-04-11 22:14 53.68132 7.05689 34 ft 62 kts 258°
2026-04-11 22:14 53.68007 7.04926 294 ft 74 kts 251°
2026-04-11 22:15 53.67601 7.04258 517 ft 93 kts 233°
2026-04-11 22:15 53.67094 7.03459 674 ft 113 kts 210°
2026-04-11 22:15 53.66249 7.03749 890 ft 134 kts 167°
2026-04-11 22:15 53.65459 7.04312 1419 ft 111 kts 167°
2026-04-11 22:16 53.64744 7.05056 1487 ft 140 kts 134°
2026-04-11 22:16 53.64588 7.06708 1494 ft 151 kts 66°
2026-04-11 22:16 53.65273 7.07832 1497 ft 131 kts 11°
2026-04-11 22:16 53.66132 7.08357 1510 ft 133 kts
2026-04-11 22:17 53.66907 7.09255 1487 ft 151 kts 50°
2026-04-11 22:17 53.67311 7.10934 1501 ft 156 kts 64°
2026-04-11 22:17 53.67776 7.12575 1491 ft 158 kts 52°
2026-04-11 22:17 53.68339 7.14229 1492 ft 166 kts 51°
2026-04-11 22:18 53.68915 7.15946 1489 ft 169 kts 52°
2026-04-11 22:18 53.69305 7.17098 1505 ft 168 kts 52°
2026-04-11 22:18 53.69697 7.18974 1499 ft 175 kts 72°
2026-04-11 22:18 53.69966 7.20987 1364 ft 182 kts 72°
2026-04-11 22:19 53.70211 7.23165 1001 ft 194 kts 73°
2026-04-11 22:19 53.70358 7.25370 618 ft 173 kts 83°
2026-04-11 22:19 53.70245 7.27201 489 ft 139 kts 100°
2026-04-11 22:19 53.70021 7.28659 485 ft 121 kts 101°
2026-04-11 22:20 53.70045 7.29935 477 ft 102 kts 58°
2026-04-11 22:20 53.70308 7.31009 483 ft 95 kts 48°
2026-04-11 22:20 53.70784 7.31218 482 ft 67 kts 310°
2026-04-11 22:20 53.70963 7.30541 484 ft 65 kts 273°
2026-04-11 22:21 53.70793 7.29815 494 ft 67 kts 262°
2026-04-11 22:21 53.70665 7.29023 499 ft 68 kts 266°
2026-04-11 22:21 53.70632 7.28262 553 ft 77 kts 276°
2026-04-11 22:21 53.70541 7.27440 504 ft 76 kts 264°
2026-04-11 22:22 53.70490 7.26625 442 ft 65 kts 269°
2026-04-11 22:22 53.70433 7.25928 411 ft 59 kts 278°
2026-04-11 22:22 53.70646 7.25277 212 ft 68 kts 322°
2026-04-11 22:22 53.70752 7.24630 118 ft 63 kts 277°
2026-04-11 22:23 53.70725 7.23891 42 ft 63 kts 273°
2026-04-11 22:23 53.70693 7.23167 6 ft 58 kts 275°
2026-04-11 22:23 53.70715 7.22458 242 ft 62 kts 284°
2026-04-11 22:23 53.70436 7.21850 393 ft 95 kts 175°
2026-04-11 22:24 53.70044 7.22764 505 ft 105 kts 109°
2026-04-11 22:24 53.69857 7.23954 695 ft 107 kts 94°
2026-04-11 22:24 53.69979 7.25272 642 ft 121 kts 54°
2026-04-11 22:24 53.70566 7.25440 416 ft 84 kts 323°
2026-04-11 22:25 53.70728 7.24556 187 ft 76 kts 279°
2026-04-11 22:25 53.70719 7.23679 24 ft 73 kts 271°
2026-04-11 22:25 53.70682 7.22900 8 ft 59 kts 277°
2026-04-11 22:25 53.70639 7.22142 180 ft 73 kts 261°
2026-04-11 22:26 53.70488 7.21297 513 ft 84 kts 234°
2026-04-11 22:26 53.69765 7.21228 592 ft 134 kts 151°
2026-04-11 22:26 53.69335 7.22617 867 ft 142 kts 85°
2026-04-11 22:26 53.69472 7.24253 1142 ft 142 kts 76°
2026-04-11 22:27 53.69611 7.25937 1397 ft 146 kts 78°
2026-04-11 22:27 53.69872 7.27631 1504 ft 156 kts 61°
2026-04-11 22:27 53.70334 7.29379 1517 ft 165 kts 56°
2026-04-11 22:27 53.70866 7.31104 1512 ft 168 kts 56°
2026-04-11 22:28 53.71442 7.32904 1512 ft 170 kts 56°
2026-04-11 22:28 53.71934 7.34480 1442 ft 134 kts 56°
2026-04-11 22:28 53.72349 7.35885 1039 ft 133 kts 61°
2026-04-11 22:28 53.72662 7.37337 652 ft 129 kts 66°
2026-04-11 22:29 53.73167 7.38291 471 ft 94 kts
2026-04-11 22:29 53.73512 7.37818 451 ft 65 kts 270°
2026-04-11 22:29 53.73428 7.37169 378 ft 57 kts 271°
2026-04-11 22:29 53.73356 7.36510 298 ft 53 kts 261°
2026-04-11 22:30 53.73035 7.36078 200 ft 59 kts 244°
2026-04-11 22:30 53.72624 7.35790 258 ft 86 kts 162°
2026-04-11 22:30 53.72510 7.36762 87 ft 90 kts 85°
2026-04-11 22:30 53.72465 7.37739 21 ft 76 kts 81°
2026-04-11 22:31 53.72413 7.38574 291 ft 74 kts 76°
2026-04-11 22:31 53.72387 7.39456 588 ft 77 kts 79°
2026-04-11 22:31 53.72369 7.40517 762 ft 103 kts 82°
2026-04-11 22:31 53.72401 7.41819 1027 ft 119 kts 83°
2026-04-11 22:32 53.72456 7.43351 1171 ft 141 kts 83°
2026-04-11 22:32 53.72527 7.45090 1313 ft 154 kts 82°
2026-04-11 22:32 53.72584 7.46791 1177 ft 141 kts 83°
2026-04-11 22:32 53.73032 7.47894 770 ft 99 kts 23°
2026-04-11 22:33 53.73640 7.48457 318 ft 92 kts 25°
2026-04-11 22:33 53.74032 7.49272 58 ft 86 kts 43°
2026-04-11 22:33 53.74358 7.50078 67 ft 86 kts 52°
2026-04-11 22:33 53.74682 7.50976 371 ft 87 kts 35°
2026-04-11 22:34 53.75140 7.51198 665 ft 75 kts 339°
2026-04-11 22:34 53.75511 7.50429 682 ft 103 kts 289°
2026-04-11 22:34 53.75481 7.49135 522 ft 116 kts 270°
2026-04-11 22:34 53.75264 7.47837 261 ft 115 kts 248°
2026-04-11 22:35 53.74760 7.46881 250 ft 96 kts 234°
2026-04-11 22:35 53.74255 7.46501 264 ft 76 kts 201°
2026-04-11 22:35 53.73752 7.46445 241 ft 72 kts 193°
2026-04-11 22:35 53.73275 7.46706 263 ft 84 kts 138°
2026-04-11 22:36 53.73267 7.47588 322 ft 78 kts 45°
2026-04-11 22:36 53.73622 7.48315 276 ft 85 kts 44°
2026-04-11 22:36 53.73960 7.49156 117 ft 89 kts 43°
2026-04-11 22:36 53.74330 7.49996 10 ft 85 kts 41°
2026-04-11 22:37 53.74680 7.50769 216 ft 80 kts 43°
2026-04-11 22:37 53.74929 7.51614 400 ft 87 kts 90°
2026-04-11 22:37 53.74956 7.52568 708 ft 79 kts 77°
2026-04-11 22:37 53.74963 7.53470 1032 ft 73 kts 81°
2026-04-11 22:38 53.74967 7.54313 1204 ft 73 kts 79°
2026-04-11 22:38 53.74954 7.55161 1363 ft 77 kts 81°
2026-04-11 22:38 53.74986 7.56276 1479 ft 106 kts 81°
2026-04-11 22:38 53.75044 7.57532 1810 ft 111 kts 82°
2026-04-11 22:39 53.75117 7.58951 1873 ft 130 kts 84°
2026-04-11 22:39 53.75251 7.60598 1930 ft 152 kts 81°
2026-04-11 22:39 53.75393 7.62469 1847 ft 170 kts 83°
2026-04-11 22:39 53.75569 7.64510 1750 ft 179 kts 81°
2026-04-11 22:40 53.75748 7.66606 1631 ft 185 kts 81°
2026-04-11 22:40 53.75926 7.68753 1514 ft 184 kts 81°
2026-04-11 22:40 53.75996 7.70870 1505 ft 178 kts 89°
2026-04-11 22:40 53.76007 7.72960 1502 ft 178 kts 89°
2026-04-11 22:41 53.76019 7.75053 1503 ft 178 kts 89°
2026-04-11 22:41 53.76033 7.77148 1499 ft 178 kts 89°
2026-04-11 22:41 53.76049 7.79237 1500 ft 178 kts 89°
2026-04-11 22:41 53.76064 7.81327 1500 ft 177 kts 89°
2026-04-11 22:42 53.76079 7.83420 1501 ft 178 kts 89°
2026-04-11 22:42 53.76124 7.85482 1502 ft 172 kts 93°
2026-04-11 22:42 53.76320 7.87432 1503 ft 165 kts 89°
2026-04-11 22:43 53.76734 7.91065 1001 ft 143 kts 90°
2026-04-11 22:43 53.76911 7.92679 466 ft 139 kts 85°
2026-04-11 22:43 53.76952 7.94225 276 ft 119 kts 88°
2026-04-11 22:43 53.76974 7.95579 320 ft 116 kts 81°
2026-04-11 22:44 53.77408 7.96476 407 ft 86 kts 10°
2026-04-11 22:44 53.77900 7.96140 329 ft 75 kts 301°
2026-04-11 22:44 53.78086 7.95357 300 ft 70 kts 280°
2026-04-11 22:44 53.78143 7.94594 252 ft 63 kts 277°
2026-04-11 22:45 53.78169 7.93868 206 ft 62 kts 276°
2026-04-11 22:45 53.78199 7.93116 114 ft 63 kts 279°
2026-04-11 22:45 53.78235 7.92385 24 ft 60 kts 278°
2026-04-11 22:45 53.78265 7.91764 7 ft 44 kts 274°
2026-04-11 22:46 53.78277 7.91456 11 ft 15 kts 274°
2026-04-11 22:46 53.78287 7.91332 13 ft 8 kts 311°
2026-04-11 22:46 53.78340 7.91376 11 ft 15 kts 103°
2026-04-11 22:46 53.78371 7.91409 10 ft 9 kts 307°
2026-04-11 22:47 53.78397 7.91348 10 ft 13 kts 305°
2026-04-11 22:47 53.78480 7.91151 11 ft 21 kts 304°
2026-04-11 22:47 53.78584 7.91023 11 ft 17 kts 341°
2026-04-11 22:47 53.78686 7.90956 11 ft 14 kts 340°
2026-04-11 22:48 53.78774 7.90898 12 ft 12 kts 328°
2026-04-11 22:48 53.78790 7.90925 12 ft 6 kts 146°
2026-04-11 22:48 53.78785 7.90930 12 ft 0 kts 152°
2026-04-11 22:57 53.78749 7.90918 11 ft 14 kts 160°
2026-04-11 22:57 53.78651 7.90980 10 ft 16 kts 156°
2026-04-11 22:57 53.78515 7.91070 10 ft 12 kts 154°
2026-04-11 22:57 53.78501 7.91171 11 ft 7 kts 135°
2026-04-11 22:58 53.78373 7.91238 12 ft 18 kts 156°
2026-04-11 22:58 53.78277 7.91341 12 ft 29 kts 128°
2026-04-11 22:58 53.78256 7.91978 10 ft 84 kts 90°
2026-04-11 22:58 53.78154 7.93136 118 ft 114 kts 101°
2026-04-11 22:59 53.77993 7.94338 578 ft 93 kts 139°
2026-04-11 22:59 53.77694 7.94273 1171 ft 59 kts 270°
2026-04-11 22:59 53.77905 7.93688 1441 ft 57 kts 274°
2026-04-11 22:59 53.78102 7.93157 1699 ft 49 kts 275°
2026-04-11 23:00 53.78455 7.93224 692 ft 125 kts 324°
2026-04-11 23:00 53.79133 7.92807 1302 ft 64 kts 14°
2026-04-11 23:00 53.79623 7.92925 540 ft 79 kts
2026-04-11 23:00 53.80177 7.92880 745 ft 121 kts 350°
2026-04-11 23:01 53.80193 7.92224 1091 ft 108 kts 343°
2026-04-11 23:01 53.80826 7.92057 1270 ft 79 kts 36°
2026-04-11 23:01 53.81560 7.92382 723 ft 131 kts
2026-04-11 23:01 53.82507 7.92228 840 ft 133 kts 344°
2026-04-11 23:02 53.83021 7.91203 1282 ft 114 kts 273°
2026-04-11 23:02 53.82696 7.90104 1740 ft 98 kts 234°
2026-04-11 23:02 53.77732 7.78744 1893 ft 1787 kts 233°
2026-04-11 23:02 53.72759 7.67358 2019 ft 0 kts 233°
2026-04-11 23:03 53.72007 7.65668 2189 ft 100 kts 233°
2026-04-11 23:03 53.71578 7.64769 2526 ft 95 kts 232°
2026-04-11 23:03 53.71200 7.63906 3013 ft 91 kts 240°
2026-04-11 23:03 53.70693 7.63003 2972 ft 121 kts 233°
2026-04-11 23:04 53.70058 7.61940 2928 ft 133 kts 233°
2026-04-11 23:04 53.69400 7.60813 2920 ft 136 kts 233°
2026-04-11 23:04 53.68731 7.59670 2925 ft 137 kts 233°
2026-04-11 23:04 53.68059 7.58524 2924 ft 137 kts 232°
2026-04-11 23:05 53.67391 7.57371 2925 ft 137 kts 233°
2026-04-11 23:05 53.66719 7.56226 2923 ft 138 kts 233°
2026-04-11 23:05 53.66042 7.55071 2923 ft 139 kts 233°
2026-04-11 23:05 53.65373 7.53927 2922 ft 138 kts 233°
2026-04-11 23:06 53.64695 7.52774 2923 ft 139 kts 233°
2026-04-11 23:06 53.64013 7.51618 2921 ft 139 kts 233°
2026-04-11 23:06 53.63328 7.50467 2923 ft 140 kts 232°
2026-04-11 23:06 53.62639 7.49309 2933 ft 140 kts 232°
2026-04-11 23:07 53.62183 7.48536 2939 ft 140 kts 232°
2026-04-11 23:07 53.61501 7.47376 2938 ft 139 kts 232°
2026-04-11 23:07 53.60823 7.46215 2946 ft 139 kts 232°
2026-04-11 23:07 53.60132 7.45041 2939 ft 140 kts 232°
2026-04-11 23:08 53.59444 7.43885 2944 ft 140 kts 232°
2026-04-11 23:08 53.58765 7.42745 2943 ft 139 kts 232°
2026-04-11 23:08 53.58079 7.41606 2943 ft 138 kts 232°
2026-04-11 23:08 53.57392 7.40460 2942 ft 137 kts 232°
2026-04-11 23:09 53.56723 7.39351 2941 ft 137 kts 232°
2026-04-11 23:09 53.56046 7.38211 2942 ft 139 kts 232°
2026-04-11 23:09 53.55366 7.37059 2942 ft 139 kts 232°
2026-04-11 23:09 53.54681 7.35905 2943 ft 140 kts 232°
2026-04-11 23:10 53.53996 7.34749 2938 ft 139 kts 232°
2026-04-11 23:10 53.53309 7.33616 2943 ft 138 kts 232°
2026-04-11 23:10 53.52622 7.32479 2943 ft 139 kts 232°
2026-04-11 23:10 53.51938 7.31338 2947 ft 139 kts 232°
2026-04-11 23:11 53.51254 7.30199 2935 ft 138 kts 232°
2026-04-11 23:11 53.50571 7.29074 2937 ft 137 kts 232°
2026-04-11 23:11 53.49886 7.27955 2939 ft 138 kts 231°
2026-04-11 23:11 53.49204 7.26821 2939 ft 138 kts 232°
2026-04-11 23:12 53.48532 7.25684 2944 ft 137 kts 232°
2026-04-11 23:12 53.47863 7.24554 2941 ft 136 kts 232°
2026-04-11 23:12 53.47195 7.23436 2938 ft 136 kts 231°
2026-04-11 23:12 53.46537 7.22283 2936 ft 137 kts 232°
2026-04-11 23:13 53.45875 7.21127 2933 ft 137 kts 232°
2026-04-11 23:13 53.45211 7.19971 2938 ft 137 kts 232°
2026-04-11 23:13 53.44545 7.18820 2936 ft 137 kts 232°
2026-04-11 23:13 53.43880 7.17667 2939 ft 138 kts 232°
2026-04-11 23:14 53.43216 7.16510 2959 ft 138 kts 232°
2026-04-11 23:14 53.42550 7.15347 2960 ft 138 kts 232°
2026-04-11 23:14 53.41881 7.14184 2960 ft 138 kts 232°
2026-04-11 23:14 53.41220 7.13042 2960 ft 138 kts 232°
2026-04-11 23:15 53.40549 7.11884 2956 ft 138 kts 231°
2026-04-11 23:15 53.39882 7.10722 2962 ft 138 kts 232°
2026-04-11 23:15 53.39213 7.09562 2961 ft 139 kts 231°
2026-04-11 23:15 53.38541 7.08403 2961 ft 139 kts 231°
2026-04-11 23:16 53.37855 7.07253 2958 ft 139 kts 230°
2026-04-11 23:16 53.37170 7.06109 2953 ft 139 kts 230°
2026-04-11 23:16 53.36489 7.04965 2952 ft 138 kts 230°
2026-04-11 23:16 53.35806 7.03831 2958 ft 138 kts 230°
2026-04-11 23:17 53.35118 7.02697 2960 ft 139 kts 230°
2026-04-11 23:17 53.34427 7.01559 2960 ft 139 kts 230°
2026-04-11 23:17 53.33736 7.00420 2958 ft 140 kts 230°
2026-04-11 23:17 53.33046 6.99281 2956 ft 139 kts 230°
2026-04-11 23:18 53.32353 6.98149 2953 ft 139 kts 230°
2026-04-11 23:18 53.31661 6.97016 2953 ft 139 kts 230°
2026-04-11 23:18 53.30968 6.95887 2953 ft 139 kts 230°
2026-04-11 23:18 53.30274 6.94757 2951 ft 139 kts 230°
2026-04-11 23:19 53.29579 6.93629 2943 ft 139 kts 230°
2026-04-11 23:19 53.28877 6.92494 2807 ft 139 kts 228°
2026-04-11 23:19 53.28218 6.91342 2965 ft 141 kts 232°
2026-04-11 23:19 53.27520 6.90188 2963 ft 140 kts 230°
2026-04-11 23:20 53.26821 6.89053 2949 ft 140 kts 230°
2026-04-11 23:20 53.26124 6.87926 2950 ft 139 kts 230°
2026-04-11 23:20 53.25428 6.86809 2947 ft 139 kts 230°
2026-04-11 23:20 53.24729 6.85692 2947 ft 139 kts 230°
2026-04-11 23:21 53.24031 6.84573 2945 ft 139 kts 230°
2026-04-11 23:21 53.23336 6.83449 2945 ft 139 kts 230°
2026-04-11 23:21 53.22640 6.82323 2945 ft 139 kts 230°
2026-04-11 23:21 53.22002 6.81133 2941 ft 136 kts 239°
2026-04-11 23:22 53.21468 6.79817 2867 ft 140 kts 240°
2026-04-11 23:22 53.20945 6.78510 2629 ft 132 kts 240°
2026-04-11 23:22 53.20445 6.77267 2394 ft 129 kts 240°
2026-04-11 23:22 53.19952 6.76034 2154 ft 127 kts 240°
2026-04-11 23:23 53.19467 6.74796 1914 ft 128 kts 240°
2026-04-11 23:23 53.18993 6.73559 1748 ft 125 kts 240°
2026-04-11 23:23 53.18524 6.72339 1587 ft 125 kts 240°
2026-04-11 23:23 53.18059 6.71116 1425 ft 124 kts 240°
2026-04-11 23:24 53.17595 6.69904 1265 ft 124 kts 239°
2026-04-11 23:24 53.17136 6.68679 1108 ft 125 kts 240°
2026-04-11 23:24 53.16680 6.67437 946 ft 125 kts 236°
2026-04-11 23:24 53.16098 6.66464 959 ft 109 kts 224°
2026-04-11 23:25 53.15571 6.65562 877 ft 111 kts 233°
2026-04-11 23:25 53.15183 6.64676 903 ft 83 kts 233°
2026-04-11 23:25 53.14822 6.63949 793 ft 84 kts 229°
2026-04-11 23:25 53.14459 6.63161 695 ft 82 kts 230°
2026-04-11 23:26 53.14088 6.62421 570 ft 85 kts 230°
2026-04-11 23:26 53.13752 6.61627 495 ft 84 kts 231°
2026-04-11 23:26 53.13382 6.60870 374 ft 84 kts 230°
2026-04-11 23:26 53.13026 6.60132 249 ft 80 kts 229°
2026-04-11 23:27 53.12690 6.59430 121 ft 72 kts 227°
2026-04-11 23:27 53.12397 6.58815 30 ft 64 kts 229°
2026-04-11 23:27 53.12146 6.58286 18 ft 54 kts 229°
2026-04-11 23:27 53.11947 6.57866 19 ft 19 kts 227°
2026-04-11 23:28 53.11924 6.57743 19 ft 10 kts 346°
2026-04-11 23:28 53.11987 6.57748 18 ft 9 kts 11°
2026-04-11 23:28 53.12052 6.57773 17 ft 10 kts 17°
2026-04-11 23:28 53.12111 6.57806 18 ft 8 kts 19°
2026-04-11 23:29 53.12161 6.57835 18 ft 6 kts 20°